Temperature
18 17 17 17 17 17 17 16 16 16 16 16 15 15 15 15 15 15 15 15 15 15 14 14 14 14 14 14 14 14 14 13 13 13 13 13 13 13 13 13 13 13 13
18 17 17 17 17 17 16 16 16 16 16 16 16 15 15 15 15 15 15 15 14 14 14 14 14 14 14 14 13 13 13 13 13 13 13 13 13 13 13 12 12 12 12
18 17 17 17 16 16 16 16 16 16 16 15 15 15 15 15 15 15 14 14 14 14 14 14 14 14 14 13 13 13 13 13 13 13 13 14 14 13 12 12 12 12 12
18 17 17 17 16 16 16 16 16 16 16 15 15 15 15 15 15 15 14 14 14 14 14 14 14 14 13 13 13 13 13 13 13 13 13 13 13 13 13 12 12 12 12
18 17 17 16 16 16 16 16 16 16 15 15 15 15 15 15 14 14 14 14 14 14 14 14 14 13 13 13 13 13 13 13 13 12 12 12 12 12 13 12 12 12 11
17 17 16 16 16 16 16 16 15 15 15 15 15 15 15 14 14 14 14 14 14 14 14 13 13 13 13 13 13 13 13 13 12 12 12 12 12 12 12 12 12 12 11
17 16 16 16 16 16 16 15 15 15 15 15 15 15 15 14 14 14 14 14 14 13 13 13 13 13 13 13 13 13 12 12 12 12 12 12 12 12 12 12 12 12 11
17 16 16 15 15 15 15 15 15 15 15 15 15 15 14 14 14 14 14 13 13 13 13 13 13 13 13 13 13 12 12 12 12 12 12 12 12 12 12 11 12 12 12
16 16 15 15 15 15 15 15 15 15 15 15 15 14 14 14 14 14 14 13 13 13 13 13 13 13 13 12 12 12 12 12 12 12 12 12 12 11 11 11 11 11 12
16 16 15 15 15 15 15 14 14 14 15 14 14 14 14 14 14 14 14 13 13 13 13 13 13 13 12 12 12 12 12 12 12 12 12 12 11 11 11 11 11 11 11
16 15 15 15 15 14 14 14 14 14 14 14 14 14 14 14 14 14 13 13 13 13 13 13 12 12 12 12 12 12 12 12 12 12 11 11 11 11 11 11 11 11 10
15 15 15 14 14 14 14 14 14 14 14 14 14 14 14 13 13 13 13 13 13 13 13 12 12 12 12 12 12 12 12 11 11 11 11 11 11 11 11 11 11 10 10
15 15 14 14 14 14 14 14 14 14 14 14 13 13 13 13 13 13 13 13 13 13 12 12 12 12 12 12 12 12 11 11 11 11 11 11 11 11 10 10 10 10 10
15 14 14 14 14 14 14 14 14 13 13 13 13 13 13 13 13 13 13 13 12 12 12 12 12 12 12 12 11 11 11 11 11 11 11 11 11 10 10 10 10 10 10
14 14 14 14 13 13 13 13 13 13 13 13 13 13 13 13 13 13 12 12 12 12 12 12 11 11 11 11 11 11 11 11 11 11 11 11 10 10 10 10 10 10 10
14 14 14 13 13 13 13 13 13 13 13 13 13 13 12 12 12 12 12 12 12 11 11 11 11 11 11 11 11 11 11 11 11 10 10 10 10 10 10 10 10 9 9
14 14 14 13 13 13 13 13 13 13 12 12 12 12 12 12 12 12 12 11 11 11 11 11 11 11 11 11 11 11 10 10 10 10 10 10 10 10 10 10 10 9 9
14 13 13 13 13 13 12 12 12 12 12 12 12 12 12 12 12 11 11 11 11 11 11 11 11 11 11 11 10 10 10 10 10 10 10 10 10 9 9 9 9 9 9
13 13 13 13 12 12 12 12 12 12 12 12 12 12 11 11 11 11 11 11 11 11 11 10 10 10 10 10 10 10 9 9 9 9 9 9 9 9 9 9 9 9 9
13 13 12 12 12 12 12 12 12 11 11 11 11 11 11 11 11 11 11 11 10 10 10 10 10 10 10 10 10 9 9 9 9 9 9 9 9 9 9 9 9 8 9
12 12 12 12 12 12 11 11 11 11 11 11 11 11 11 11 11 10 10 10 10 10 10 10 10 9 9 9 9 9 9 9 9 9 9 9 9 9 9 9 8 8 8
12 12 11 11 11 11 11 11 11 11 11 10 10 10 10 10 10 10 10 10 10 10 9 9 9 9 9 9 9 9 9 9 8 9 9 9 9 9 9 8 8 8 8
11 11 11 11 11 11 10 10 10 10 10 10 10 10 10 10 10 10 10 9 9 9 9 9 9 9 9 9 9 9 8 8 8 8 8 8 8 8 8 8 8 8 7
11 10 10 10 10 10 10 10 10 10 9 9 9 9 9 9 9 9 9 9 9 9 9 8 8 8 8 8 8 8 8 8 8 8 8 8 8 8 8 7 7 7 7
10 10 10 10 10 10 9 9 9 9 9 9 9 9 9 9 9 9 9 9 8 8 8 8 8 8 8 8 8 8 8 8 7 7 7 7 7 7 7 7 7 6 6
9 9 9 9 9 9 9 9 9 9 9 9 9 9 8 8 8 8 8 8 8 8 8 8 8 8 8 8 8 8 7 7 7 7 6 6 6 6 6 6 6 6 6
Wind_Speed
8 8 7 7 7 6 6 6 6 6 5 4 4 3 3 3 2 2 2 2 1 1 2 1 2 2 2 2 2 2 3 2 1 1 1 2 2 3 2 2 3 3 4
8 8 7 7 7 7 6 6 6 6 6 4 4 3 3 3 2 2 2 2 2 2 1 2 2 2 2 2 2 2 1 1 0 1 1 1 2 1 2 2 2 2 2
9 9 8 8 7 7 6 6 6 6 6 6 4 4 3 3 3 3 2 2 2 2 2 2 2 2 2 2 2 2 2 1 1 1 1 2 1 0 1 1 1 1 1
9 9 9 8 8 7 6 6 6 5 6 6 6 6 4 4 3 3 3 3 2 2 2 2 2 2 1 2 2 2 2 2 1 0 1 2 2 2 1 1 0 0 1
8 9 9 8 8 7 6 6 5 5 5 6 6 6 5 4 3 3 3 3 2 2 2 2 2 2 2 2 2 2 2 2 1 1 1 1 1 3 2 2 1 1 1
7 7 8 7 7 6 6 5 6 5 4 5 6 7 6 5 5 4 4 3 3 3 3 2 2 2 2 2 2 2 3 2 2 2 2 2 2 2 2 2 2 1 1
5 6 7 7 7 6 6 6 6 6 5 6 7 7 7 7 6 5 4 4 3 3 3 3 3 2 2 2 2 3 2 3 3 3 2 2 2 2 3 3 2 2 1
4 5 6 6 6 6 6 6 6 6 6 5 6 7 7 5 5 5 5 5 4 4 3 3 3 3 3 3 2 2 3 2 3 3 2 2 2 2 2 3 2 3 2
4 5 5 6 6 6 7 6 6 6 5 6 6 6 6 6 6 6 5 4 4 4 4 4 3 3 3 3 3 3 3 3 3 3 3 2 2 2 3 3 3 3 3
3 4 5 5 6 6 6 6 6 5 5 5 5 4 6 6 6 6 5 5 5 4 5 4 4 3 3 4 3 3 3 3 3 2 3 3 2 2 2 3 3 4 4
2 3 4 5 5 5 6 6 6 5 5 5 5 5 5 5 5 5 5 5 5 5 5 5 4 4 4 4 4 4 4 4 4 3 3 3 3 3 3 3 3 3 4
2 3 3 4 5 5 6 6 6 5 5 5 4 5 5 5 5 5 5 5 5 5 6 5 5 5 5 5 5 5 4 4 4 4 4 3 2 4 3 3 3 3 4
2 2 3 4 4 5 5 6 6 5 5 5 5 5 5 5 5 5 4 4 5 5 5 5 5 5 5 5 5 5 5 5 4 4 4 4 4 4 3 4 4 3 4
2 2 3 4 4 4 4 4 5 5 5 5 5 6 6 5 5 4 4 4 4 4 5 5 5 5 4 5 4 4 5 4 4 4 4 4 4 4 4 3 4 4 4
3 3 3 3 4 4 4 4 5 5 5 5 5 5 5 5 5 4 4 4 4 4 4 4 4 4 4 3 4 4 5 4 4 4 4 4 3 3 3 3 3 4 4
3 4 4 3 4 4 4 4 4 4 5 5 5 5 5 5 5 4 5 4 4 4 4 4 4 4 3 2 3 4 4 4 5 4 4 4 5 4 5 5 4 5 5
4 4 4 4 4 4 4 4 4 4 5 5 5 5 5 5 5 4 4 5 5 4 4 4 4 4 3 3 4 5 5 5 4 4 4 3 4 5 5 5 6 6 6
4 4 4 4 4 4 3 4 4 4 5 5 5 5 5 5 5 5 4 4 4 4 4 4 4 4 3 4 4 5 6 5 4 4 4 5 4 4 4 5 5 5 5
4 4 4 4 3 3 4 4 4 4 4 5 5 5 5 5 5 5 5 4 4 4 4 4 4 5 4 5 4 5 4 4 4 4 5 5 5 3 4 5 5 5 4
3 3 3 3 3 3 3 4 4 4 4 4 5 5 5 5 5 5 5 4 4 4 4 4 4 5 4 4 4 5 4 4 4 3 4 4 4 4 5 6 6 6 5
3 3 3 3 3 3 4 5 4 4 4 3 4 5 5 5 5 5 4 4 4 4 4 5 4 4 4 4 4 5 4 4 4 4 4 3 3 5 6 7 6 5 5
3 3 3 3 3 3 4 4 4 3 3 3 4 5 5 4 4 4 4 4 4 4 4 4 4 4 4 3 4 4 4 5 5 4 4 3 3 4 6 5 4 4 5
3 3 3 3 3 3 4 4 3 3 3 3 4 4 5 4 4 5 5 4 4 4 4 4 4 4 4 3 5 5 5 6 5 4 3 3 3 4 5 5 5 5 5
3 3 3 3 3 3 4 3 3 3 3 4 4 3 4 4 4 4 4 4 4 4 4 4 4 4 4 4 4 4 4 5 5 4 3 4 4 4 4 4 4 4 5
3 3 4 4 4 3 3 3 3 3 3 4 3 3 3 4 4 3 3 4 4 4 5 5 5 5 5 4 2 3 4 4 4 3 3 3 3 3 3 3 3 3 4
4 4 4 4 4 4 3 3 3 3 4 4 4 4 3 4 3 3 3 2 4 3 4 5 6 5 4 2 2 3 2 2 2 3 4 4 4 4 4 4 4 3 3
Wind_Direction
193 185 186 189 189 189 193 187 184 181 175 174 182 182 178 174 164 158 150 142 131 113 110 129 113 105 99 100 111 115 116 108 101 99 95 93 71 63 68 52 39 47 42
192 185 188 189 195 193 193 194 194 187 185 186 186 187 185 180 158 152 160 164 156 143 136 143 137 130 123 131 126 135 145 129 222 294 279 215 168 97 64 64 42 37 47
200 191 191 194 196 195 193 194 197 193 190 186 183 173 168 173 167 171 170 170 160 157 160 157 149 157 165 156 170 175 181 203 221 295 301 294 316 31 135 46 39 30 14
206 196 192 194 197 199 195 194 190 193 189 185 189 188 192 193 194 185 172 170 164 158 166 171 172 166 168 180 194 193 208 215 220 207 314 319 331 292 250 188 72 2 336
202 198 195 197 199 196 193 195 189 191 193 191 192 202 204 204 191 179 169 176 167 167 166 177 187 185 186 199 204 206 217 215 239 240 237 274 279 275 286 276 263 238 283
195 195 193 194 195 192 188 188 189 187 191 197 197 206 204 201 192 190 186 192 183 183 178 181 187 198 200 202 207 213 216 232 236 241 235 240 254 270 268 267 258 260 252
179 181 183 186 187 187 188 189 189 187 192 203 204 206 207 205 203 203 201 205 201 196 191 188 196 194 201 203 212 219 222 226 233 242 251 253 261 279 278 273 270 273 257
169 175 181 185 184 184 188 192 195 196 196 205 208 206 207 209 211 212 212 212 215 210 195 194 198 201 204 209 213 231 229 233 234 240 243 248 255 257 264 275 278 273 262
169 175 179 182 182 185 188 193 195 199 200 206 211 208 209 210 213 216 216 218 216 207 197 199 202 205 208 212 209 225 227 231 241 245 236 237 247 244 248 251 255 266 266
174 178 183 187 186 189 192 193 195 197 199 206 213 213 217 215 217 217 212 211 212 205 197 199 204 205 207 214 216 228 241 236 231 240 242 239 237 235 234 245 251 257 266
182 186 184 188 188 188 191 194 198 202 203 208 210 212 216 221 218 216 213 212 212 208 204 202 208 207 209 212 212 221 225 235 233 230 237 241 242 233 226 233 242 244 251
180 183 183 184 186 188 192 196 202 206 209 210 210 212 206 212 216 216 213 207 206 208 208 206 209 208 212 215 217 219 224 231 236 234 235 239 236 240 242 237 240 240 244
172 170 183 187 192 197 200 203 207 212 210 210 214 214 209 210 214 216 213 209 205 208 210 208 210 210 211 214 219 220 222 227 231 235 237 237 233 235 241 240 244 243 238
197 187 199 200 199 203 205 208 209 211 209 206 212 216 214 210 213 211 208 204 202 205 210 210 208 208 210 214 215 220 225 224 227 236 241 238 232 237 244 242 241 238 234
221 215 219 217 211 208 210 214 215 211 207 205 209 215 214 206 204 200 202 202 200 204 206 211 210 206 209 212 219 221 227 226 227 232 236 238 244 261 261 260 249 238 231
238 234 232 229 223 219 218 219 223 216 208 205 207 207 208 196 197 198 195 193 194 199 199 206 209 210 211 171 219 242 228 230 230 233 236 233 227 229 231 248 261 262 240
244 243 242 239 234 229 223 223 220 213 208 206 204 199 201 192 193 193 192 192 195 197 203 208 209 212 202 179 207 234 239 235 233 235 238 235 233 228 230 224 225 237 247
250 250 251 249 242 233 226 222 218 215 209 207 202 197 198 195 189 190 195 200 201 200 205 210 214 214 210 191 214 231 235 240 241 239 238 237 237 229 238 236 233 236 240
259 257 250 246 238 231 224 214 214 215 209 205 203 199 200 195 193 195 201 206 204 207 211 213 219 219 213 195 216 237 237 240 244 245 243 240 236 224 237 237 235 234 236
264 264 252 237 228 227 223 215 213 214 215 211 209 201 202 199 204 206 207 208 208 216 219 220 224 225 225 187 208 240 238 246 251 253 246 234 245 234 231 231 230 232 230
266 259 240 231 227 222 222 221 218 221 224 216 210 204 203 206 210 208 206 209 213 219 225 226 227 227 228 198 202 236 242 247 254 254 254 248 219 236 240 246 240 240 243
264 253 239 233 229 221 220 227 228 227 223 210 207 205 202 201 203 204 207 209 210 218 224 227 231 232 224 221 208 226 254 271 253 255 261 261 217 229 239 243 241 242 240
263 252 238 231 231 224 225 230 232 224 213 207 210 209 202 199 203 206 208 209 212 221 226 230 235 236 233 219 212 227 244 257 256 258 270 270 235 227 230 232 229 228 233
261 255 238 231 234 231 229 229 224 215 206 206 209 209 209 210 208 208 212 215 218 226 231 231 237 241 240 238 236 237 236 230 242 249 233 217 219 227 239 241 227 232 237
263 252 244 239 236 229 226 224 219 210 211 215 211 209 214 205 211 212 217 227 231 235 238 240 242 241 244 244 248 247 246 249 252 259 251 249 245 243 245 246 244 241 237
264 256 249 242 241 237 234 226 225 224 226 225 221 215 215 213 212 218 224 215 232 248 258 262 258 255 253 232 226 243 253 246 227 227 236 239 241 244 242 239 238 235 236
Height
1518 1520 1522 1523 1525 1527 1528 1529 1530 1531 1532 1533 1534 1535 1536 1536 1536 1537 1537 1537 1537 1537 1537 1537 1537 1536 1536 1536 1537 1537 1537 1537 1537 1537 1537 1537 1536 1536 1535 1535 1535 1535 1534
1516 1518 1519 1521 1523 1525 1526 1528 1529 1530 1531 1532 1533 1534 1535 1535 1536 1536 1536 1537 1537 1537 1537 1537 1536 1536 1536 1536 1536 1536 1536 1536 1536 1537 1537 1537 1538 1536 1536 1535 1534 1534 1533
1512 1515 1517 1519 1521 1522 1524 1525 1526 1528 1529 1530 1532 1532 1533 1534 1535 1535 1535 1536 1536 1536 1536 1536 1536 1536 1536 1536 1536 1536 1536 1536 1536 1536 1537 1537 1536 1536 1536 1535 1534 1533 1533
1510 1512 1514 1516 1518 1520 1522 1523 1525 1526 1527 1528 1530 1531 1532 1533 1534 1534 1534 1535 1535 1535 1535 1535 1535 1535 1535 1535 1535 1536 1535 1535 1536 1535 1535 1536 1535 1536 1535 1535 1534 1533 1532
1507 1509 1511 1513 1516 1518 1519 1521 1522 1524 1525 1526 1527 1529 1530 1531 1532 1533 1533 1534 1534 1534 1534 1534 1534 1534 1534 1535 1535 1535 1535 1535 1535 1534 1534 1534 1534 1534 1534 1534 1534 1533 1532
1504 1506 1509 1511 1513 1515 1517 1518 1520 1522 1523 1524 1525 1527 1528 1529 1530 1531 1532 1532 1533 1533 1533 1533 1533 1533 1533 1534 1533 1533 1533 1533 1533 1533 1533 1533 1533 1533 1533 1533 1532 1532 1532
1502 1504 1506 1508 1510 1512 1514 1516 1517 1519 1520 1522 1523 1524 1526 1527 1528 1529 1530 1530 1531 1531 1531 1531 1532 1532 1532 1532 1532 1532 1532 1532 1532 1532 1532 1532 1532 1532 1532 1532 1531 1531 1530
1500 1502 1504 1506 1507 1509 1511 1513 1515 1516 1518 1519 1520 1522 1523 1525 1526 1526 1527 1528 1529 1529 1529 1530 1530 1530 1530 1530 1530 1530 1530 1530 1530 1530 1530 1530 1530 1530 1530 1530 1530 1530 1529
1499 1500 1502 1504 1505 1507 1508 1510 1512 1514 1515 1517 1518 1519 1521 1522 1523 1524 1525 1525 1526 1526 1527 1527 1528 1528 1528 1528 1528 1528 1529 1529 1529 1528 1528 1528 1528 1528 1527 1528 1528 1529 1528
1498 1499 1500 1502 1503 1505 1507 1508 1510 1511 1512 1514 1515 1516 1518 1519 1520 1521 1521 1522 1523 1523 1524 1525 1525 1526 1526 1526 1526 1526 1526 1527 1526 1526 1526 1526 1526 1525 1525 1525 1526 1527 1527
1496 1497 1498 1500 1501 1503 1504 1506 1508 1509 1510 1511 1512 1513 1514 1516 1517 1518 1518 1519 1519 1520 1521 1522 1522 1523 1523 1524 1524 1524 1524 1524 1524 1524 1524 1524 1524 1524 1523 1523 1523 1524 1524
1495 1496 1497 1498 1500 1501 1502 1504 1505 1507 1508 1508 1509 1510 1511 1513 1514 1514 1515 1515 1516 1517 1518 1519 1519 1520 1520 1521 1521 1522 1521 1521 1521 1522 1522 1522 1521 1521 1521 1521 1521 1521 1521
1494 1495 1496 1497 1498 1499 1500 1502 1503 1504 1505 1505 1506 1507 1508 1509 1510 1511 1512 1512 1513 1514 1515 1516 1517 1517 1517 1518 1518 1519 1519 1519 1519 1519 1519 1519 1519 1519 1519 1518 1518 1518 1518
1492 1493 1494 1495 1496 1497 1498 1499 1500 1501 1502 1502 1503 1504 1505 1506 1507 1508 1508 1509 1510 1510 1512 1513 1514 1514 1515 1515 1515 1516 1516 1516 1516 1516 1516 1516 1516 1516 1516 1516 1516 1515 1515
1491 1492 1492 1493 1494 1494 1495 1496 1497 1498 1499 1499 1500 1501 1501 1503 1504 1505 1505 1506 1507 1508 1509 1510 1511 1511 1512 1512 1512 1513 1513 1513 1513 1513 1513 1513 1513 1513 1513 1513 1513 1513 1513
1489 1490 1490 1491 1491 1492 1493 1494 1494 1495 1496 1496 1497 1498 1499 1500 1501 1501 1502 1503 1504 1505 1506 1507 1508 1508 1509 1509 1509 1510 1510 1510 1510 1509 1509 1509 1509 1509 1509 1509 1509 1509 1510
1487 1488 1488 1489 1489 1490 1490 1490 1491 1492 1493 1494 1494 1495 1495 1497 1498 1499 1500 1500 1501 1502 1503 1504 1505 1505 1505 1506 1506 1506 1506 1506 1506 1506 1506 1506 1505 1505 1506 1505 1505 1506 1505
1485 1485 1486 1486 1487 1487 1488 1488 1489 1489 1490 1491 1491 1492 1493 1494 1495 1496 1497 1498 1499 1499 1500 1501 1501 1502 1502 1502 1502 1503 1503 1503 1502 1502 1502 1502 1502 1502 1502 1502 1502 1502 1502
1483 1483 1483 1484 1484 1484 1485 1485 1486 1486 1487 1487 1488 1489 1490 1491 1492 1493 1494 1495 1496 1497 1497 1498 1498 1499 1499 1499 1499 1499 1499 1499 1499 1499 1499 1499 1499 1498 1498 1498 1498 1498 1498
1480 1480 1480 1481 1481 1482 1482 1482 1483 1483 1483 1484 1485 1486 1487 1488 1490 1490 1491 1492 1493 1494 1494 1495 1495 1495 1496 1496 1496 1496 1496 1496 1496 1495 1495 1495 1494 1495 1494 1494 1494 1494 1494
1477 1477 1477 1478 1478 1478 1479 1479 1480 1480 1480 1481 1482 1483 1484 1485 1487 1488 1488 1489 1490 1491 1491 1492 1492 1492 1492 1492 1492 1492 1492 1492 1492 1491 1491 1491 1490 1490 1490 1490 1490 1490 1491
1474 1474 1475 1475 1475 1475 1476 1475 1476 1477 1477 1478 1478 1479 1481 1482 1483 1484 1485 1486 1487 1487 1488 1488 1488 1488 1488 1488 1488 1488 1489 1488 1488 1488 1487 1487 1486 1486 1486 1486 1486 1487 1487
1472 1472 1472 1471 1472 1472 1473 1473 1473 1474 1474 1475 1476 1476 1477 1478 1480 1481 1482 1483 1483 1484 1484 1485 1485 1485 1485 1484 1484 1484 1484 1484 1484 1484 1483 1483 1483 1482 1482 1482 1482 1483 1484
1469 1469 1469 1468 1469 1469 1469 1470 1470 1471 1471 1472 1472 1473 1474 1475 1476 1477 1478 1479 1479 1480 1480 1480 1481 1481 1481 1481 1481 1480 1480 1480 1480 1480 1479 1479 1478 1478 1478 1478 1478 1479 1479
1466 1466 1466 1466 1466 1466 1466 1467 1467 1468 1468 1469 1469 1470 1471 1472 1473 1473 1474 1475 1475 1476 1476 1477 1477 1477 1477 1477 1477 1476 1476 1476 1476 1475 1475 1475 1474 1474 1474 1474 1474 1474 1475
1463 1463 1463 1463 1463 1463 1463 1464 1464 1465 1465 1466 1466 1467 1467 1468 1469 1469 1470 1470 1471 1471 1472 1472 1473 1473 1473 1473 1472 1472 1472 1472 1472 1471 1470 1470 1470 1470 1469 1469 1470 1470 1470